"TOA5","AWS1","CR1000","7964","CR1000.Std.14","CPU:AWS1_114.CR1","64363","TBL110"
"TIMESTAMP","RECORD","Wind_spd_WVc(1)","Wind_spd_WVc(2)","Air_Temp_Avg","Humidity_Avg","SW_upper_Wm2_Avg","Rain_Tot","Press_Avg","Issui_Tot","Depth_cm","SR50A_Raw","Quality","Ground_Temp_Avg(1)","Ground_Temp_Avg(2)","SW_lower_Wm2_Avg","Albedo_Avg","SWC_per(1)","SWC_per(2)","Period(1)","Period(2)"
"TS","RN","","","","","","","","","","","","","","","","","","",""
"","","WVc","WVc","Avg","Avg","Avg","Tot","Avg","Tot","Smp","Smp","Smp","Avg","Avg","Avg","Avg","Smp","Smp","Smp","Smp"
"2018-06-04 00:00:00",343501,0.127,182.4,12.72,100,0.007863123,0,869.1758,0,-29.58,3.399,256,15.25,14.21,0.5913598,0.193,49.9,57.51,33.27,35.1
"2018-06-04 00:10:00",343502,0,0,12.56,100,0,0,869.1758,0,-31.79,3.421,233,15.24,14.21,0.4700354,0,49.9,57.45,33.27,35.09
"2018-06-04 00:20:00",343503,0,0,12.31,100,0,0,869.1758,0,-0.226,3.113,211,15.15,14.21,0.2615453,0,49.9,57.45,33.27,35.09
"2018-06-04 00:30:00",343504,0.048,180.9,12.21,100,0,0,869.1758,0,-0.205,3.113,216,15.16,14.23,0.4397075,0,49.9,57.39,33.27,35.07
"2018-06-04 00:40:00",343505,0,0,12.09,100,0,0,869.1758,0,-0.162,3.114,210,15.11,14.23,0.4207602,0,49.9,57.45,33.27,35.09
"2018-06-04 00:50:00",343506,0,0,12.08,100,0,0,869.1758,0,-33.88,3.443,251,15.1,14.24,0.6368208,0,49.84,57.45,33.26,35.09
"2018-06-04 01:00:00",343507,0.008,31.12,12.53,100,0.9828468,0,869.1822,0,-32.9,3.43,206,15.06,14.24,1.224365,1.236,49.9,57.45,33.27,35.09
"2018-06-04 01:10:00",343508,0.007,251.1,12.82,100,0.6211627,0,869.2011,0,-34.18,3.442,221,15.03,14.24,0.7467532,1.252,49.9,57.45,33.27,35.09
"2018-06-04 01:20:00",343509,0,0,12.68,100,0.01179416,0,869.1843,0,6.004,3.05,269,15,14.25,0.2425936,0.096,49.9,57.45,33.27,35.09
"2018-06-04 01:30:00",343510,0.322,41.08,12.68,100,0,0,869.1758,0,6.574,3.045,308,14.95,14.21,0.7997524,0,49.9,57.45,33.27,35.09
"2018-06-04 01:40:00",343511,0.47,40.03,12.66,100,0,0,869.1716,0,6.229,3.048,242,14.92,14.22,0.6935815,0,49.9,57.45,33.27,35.09
"2018-06-04 01:50:00",343512,0.622,36.87,12.57,100,0,0,869.0978,0,5.964,3.052,250,14.88,14.2,0.4244671,0,49.9,57.45,33.27,35.09
"2018-06-04 02:00:00",343513,0.807,57.07,12.28,100,0,0,868.9651,0,5.811,3.054,245,14.86,14.19,0.2273887,0,49.9,57.39,33.27,35.07
"2018-06-04 02:10:00",343514,0.385,48.22,12.26,100,0,0,869.0536,0,5.653,3.056,231,14.87,14.16,0.4358275,0,49.9,57.45,33.27,35.09
"2018-06-04 02:20:00",343515,0.435,57.68,12.26,100,0,0,868.9904,0,5.3,3.059,216,14.82,14.18,0.4547756,0,49.9,57.39,33.27,35.07
"2018-06-04 02:30:00",343516,0.171,234.9,12.32,100,0,0,868.9252,0,5.347,3.058,224,14.86,14.17,0.4547845,0,49.84,57.39,33.26,35.07
"2018-06-04 02:40:00",343517,0.275,213.9,12.28,100,0,0,868.923,0,5.489,3.057,243,14.85,14.19,0.4358585,0,49.9,57.39,33.27,35.07
"2018-06-04 02:50:00",343518,0.06,270.5,12.32,100,0,0,868.8536,0,5.23,3.06,244,14.79,14.19,0.5230432,0,49.9,57.39,33.27,35.07
"2018-06-04 03:00:00",343519,0.043,147.1,12.28,100,0,0,868.6914,0,5.339,3.059,260,14.74,14.19,0.4282792,0,49.9,57.39,33.27,35.07
"2018-06-04 03:10:00",343520,0.395,189.5,12.11,100,0,0,868.6703,0,5.387,3.059,244,14.78,14.18,0.2349794,0,49.9,57.39,33.27,35.07
"2018-06-04 03:20:00",343521,0.045,200.4,12.06,100,0,0,868.6682,0,5.254,3.061,288,14.75,14.18,0.1591807,0,49.84,57.39,33.26,35.07
"2018-06-04 03:30:00",343522,0.014,195,11.76,100,0,0,868.6703,0,5.107,3.065,314,14.7,14.17,0,0,49.9,57.39,33.27,35.07
"2018-06-04 03:40:00",343523,0.058,173.2,11.38,100,0,0,868.6703,0,5.649,3.061,367,14.71,14.13,0,0,49.9,57.39,33.27,35.07
"2018-06-04 03:50:00",343524,0.008,178.8,11.29,100,0,0,868.7377,0,2.247,3.094,279,14.72,14.13,0.2387978,0,49.9,57.33,33.27,35.06
"2018-06-04 04:00:00",343525,0,0,11.09,100,0,0,868.9125,0,-0.075,3.12,204,14.7,14.14,0.2122712,0,49.9,57.39,33.27,35.07
"2018-06-04 04:10:00",343526,0.027,166.9,10.65,100,0,0,868.9104,0,-0.236,3.123,223,14.68,14.18,0.1175127,0,49.9,57.33,33.27,35.06
"2018-06-04 04:20:00",343527,0.271,151.8,10.32,100,0,0,868.7103,0,0.442,3.118,217,14.66,14.21,0.07581488,0,49.84,57.33,33.26,35.06
"2018-06-04 04:30:00",343528,0.439,121.3,10.42,100,0,0,868.6703,0,0.343,3.118,205,14.61,14.23,0.5079686,0,49.9,57.33,33.27,35.06
"2018-06-04 04:40:00",343529,0.334,129.9,10.43,100,0.07863242,0,868.5397,0,0.266,3.119,200,14.62,14.24,0.3866642,0.113,49.9,57.33,33.27,35.06
"2018-06-04 04:50:00",343530,0.306,68.44,10.46,100,4.930258,0,868.5545,0,1.874,3.098,227,14.63,14.22,1.857509,0.385,49.9,57.33,33.27,35.06
"2018-06-04 05:00:00",343531,0.624,48.91,11.58,100,11.10291,0,868.6324,0,0.888,3.106,220,14.59,14.23,3.055414,0.279,49.9,57.33,33.27,35.06
"2018-06-04 05:10:00",343532,0.174,70.38,11.47,100,15.45129,0,868.6282,0,1.363,3.103,212,14.52,14.23,2.824173,0.184,49.9,57.33,33.27,35.06
"2018-06-04 05:20:00",343533,0.137,67.52,11.66,94.7,22.13506,0,868.4386,0,2.774,3.088,244,14.51,14.16,4.370834,0.196,49.84,57.33,33.26,35.06
"2018-06-04 05:30:00",343534,0.19,167.7,10.77,97.7,22.35916,0,868.4176,0,3.914,3.082,240,14.51,14.16,3.529269,0.158,49.84,57.33,33.26,35.06
"2018-06-04 05:40:00",343535,0.125,174.9,10.67,100,33.16327,0,868.4176,0,4.483,3.075,249,14.5,14.15,5.655928,0.167,49.84,57.33,33.26,35.06
"2018-06-04 05:50:00",343536,0.17,174.9,10.94,100,57.76739,0,868.421,0,6.326,3.056,282,14.44,14.15,13.20727,0.23,49.9,57.33,33.27,35.06
"2018-06-04 06:00:00",343537,0,0,11.4,99.9,136.1286,0,868.4206,0,4.876,3.066,300,14.42,14.13,19.1134,0.149,49.84,57.27,33.26,35.05
"2018-06-04 06:10:00",343538,0,0,12.02,93.6,99.12024,0,868.4226,0,5.636,3.056,353,14.44,14.15,21.4296,0.243,49.9,57.27,33.27,35.05
"2018-06-04 06:20:00",343539,0,174.5,12.24,92.6,68.25304,0,868.4178,0,6.297,3.05,233,14.45,14.15,24.48501,0.358,49.84,57.27,33.26,35.05
"2018-06-04 06:30:00",343540,0.063,133.1,12.62,93.1,84.92313,0,868.4472,0,6.327,3.046,381,14.38,14.15,28.71559,0.344,49.9,57.27,33.27,35.05
"2018-06-04 06:40:00",343541,0.09,131.6,12.99,91,153.99,0,868.4177,0,6.8,3.04,448,14.31,14.15,28.83689,0.246,49.84,57.27,33.26,35.05
"2018-06-04 06:50:00",343542,0.065,117.8,13.33,88.5,76.57117,0,868.4177,0,1.3,3.091,218,14.32,14.14,35.06469,0.466,49.84,57.33,33.26,35.06
"2018-06-04 07:00:00",343543,0.524,19.17,13.92,81.4,100.7266,0,868.4261,0,6.531,3.038,324,14.3,14.06,36.26332,0.398,49.84,57.27,33.26,35.05
"2018-06-04 07:10:00",343544,0.806,3.701,14.12,80.2,75.88878,0,868.6072,0,7.066,3.032,246,14.27,14.02,36.33172,0.48,49.9,57.27,33.27,35.05
"2018-06-04 07:20:00",343545,0.965,7.786,13.85,82.9,102.0764,0,868.6472,0,6.751,3.037,264,14.2,14.02,37.59101,0.377,49.9,57.27,33.27,35.05
"2018-06-04 07:30:00",343546,0.594,7.784,14.02,83.6,94.56118,0,868.6409,0,8.03,3.022,379,14.18,14.04,39.56761,0.427,49.9,57.27,33.27,35.05
"2018-06-04 07:40:00",343547,0.667,350.7,14.4,80.6,234.6081,0,868.4577,0,-32.97,3.422,230,14.17,14.02,44.98982,0.339,49.9,57.27,33.27,35.05
"2018-06-04 07:50:00",343548,0.602,357.2,14.58,81.4,631.1111,0,868.4219,0,3.215,3.066,220,14.12,14.01,58.83659,0.093,49.9,57.27,33.27,35.05
"2018-06-04 08:00:00",343549,0.734,21.37,14.92,80.2,666.7106,0,868.4387,0,4.155,3.055,227,14.11,13.98,83.98013,0.126,49.84,57.27,33.26,35.05
"2018-06-04 08:10:00",343550,0.703,10.74,15.19,80.2,703.9694,0,868.4409,0,-30.44,3.39,206,14.15,13.97,103.0832,0.146,49.84,57.27,33.26,35.05
"2018-06-04 08:20:00",343551,0.563,15.76,15.47,78.88,740.973,0,868.4198,0,10.25,2.993,282,14.14,13.97,117.5555,0.159,49.9,57.27,33.27,35.05
"2018-06-04 08:30:00",343552,0.751,16.58,15.8,75.18,780.8851,0,868.4164,0,-31.97,3.402,222,14.14,13.97,129.1515,0.165,49.84,57.27,33.26,35.05
"2018-06-04 08:40:00",343553,0.952,11.55,15.94,74.71,830.4096,0,868.3846,0,-30.22,3.385,201,14.15,13.97,140.3645,0.169,49.84,57.27,33.26,35.05
"2018-06-04 08:50:00",343554,0.694,13.34,16.28,72.85,841.3643,0,868.3594,0,2.526,3.064,224,14.13,13.97,140.165,0.166,49.84,57.27,33.26,35.05
"2018-06-04 09:00:00",343555,0.696,359.2,16.51,71.68,902.4124,0,868.3466,0,12.22,2.967,304,14.11,13.96,150.8878,0.167,49.9,57.22,33.27,35.03
"2018-06-04 09:10:00",343556,0.822,29.33,17.06,69.81,933.3856,0,868.2158,0,11.41,2.976,268,14.07,13.95,153.8952,0.165,49.84,57.22,33.26,35.03
"2018-06-04 09:20:00",343557,0.372,46.02,17.29,68.14,935.9185,0,868.0845,0,11.47,2.971,260,14.06,13.92,152.3728,0.163,49.9,57.22,33.27,35.03
"2018-06-04 09:30:00",343558,0.55,42.89,17.34,64.64,973.309,0,868.131,0,5.247,3.032,247,14.03,13.82,159.8806,0.164,49.84,57.22,33.26,35.03
"2018-06-04 09:40:00",343559,0.524,344.4,18.11,64.23,998.0333,0,868.1608,0,10.94,2.973,233,14,13.78,163.5033,0.163,49.9,57.22,33.27,35.03
"2018-06-04 09:50:00",343560,0.367,35.91,18.3,62.66,803.7288,0,868.3079,0,11.11,2.974,267,14,13.78,126.6684,0.15,49.84,57.22,33.26,35.03
"2018-06-04 10:00:00",343561,0.524,322.6,18.39,61.72,1021.482,0,868.3259,0,4.107,3.036,241,14,13.78,169.4693,0.166,49.84,57.22,33.26,35.03
"2018-06-04 10:10:00",343562,0.58,3.618,18.14,59.86,823.3135,0,868.3309,0,9.02,2.993,357,13.99,13.8,132.3614,0.152,49.84,57.22,33.26,35.03
"2018-06-04 10:20:00",343563,0.418,300.1,18.52,57.24,1045.234,0,868.3278,0,-28.48,3.35,237,14.05,13.81,176.1721,0.169,49.84,57.22,33.26,35.03
"2018-06-04 10:30:00",343564,0.417,0.368,19,53.9,1067.065,0,868.3397,0,15.08,2.927,252,14.11,13.78,178.3269,0.167,49.79,57.22,33.24,35.03
"2018-06-04 10:40:00",343565,0.572,330.1,19.32,53.26,1069.956,0,868.4047,0,18.05,2.9,360,14.15,13.8,178.3245,0.167,49.79,57.22,33.24,35.03
"2018-06-04 10:50:00",343566,0.617,7.519,19.28,53.51,1024.052,0,868.3386,0,6.094,3.017,232,14.18,13.82,172.4128,0.167,49.84,57.16,33.26,35.02
"2018-06-04 11:00:00",343567,0.665,39.02,19.34,51.92,1091.899,0,868.3349,0,12.05,2.955,275,14.24,13.81,186.4944,0.171,49.79,57.16,33.24,35.02
"2018-06-04 11:10:00",343568,0.582,351,19.75,49.88,1073.22,0,868.1279,0,-23.9,3.302,251,14.27,13.76,181.9193,0.17,49.79,57.16,33.24,35.02
"2018-06-04 11:20:00",343569,0.335,301.3,20.03,49.48,1102.247,0,868.0002,0,4.641,3.023,298,14.38,13.74,185.1136,0.168,49.79,57.16,33.24,35.02
"2018-06-04 11:30:00",343570,0.392,17.43,20.39,46.66,1092.337,0,867.7531,0,-29.52,3.354,247,14.44,13.73,186.4797,0.171,49.73,57.16,33.23,35.02
"2018-06-04 11:40:00",343571,0.44,17.8,20.11,45.24,1092.193,0,867.5831,0,-24.99,3.311,215,14.54,13.73,186.331,0.171,49.73,57.16,33.23,35.02
"2018-06-04 11:50:00",343572,0.38,65.73,20.8,47.47,1086.024,0,867.3734,0,13.77,2.931,312,14.58,13.72,185.5523,0.171,49.79,57.16,33.24,35.02
"2018-06-04 12:00:00",343573,0.482,334,21.22,45.93,1077.274,0,867.3259,0,11.38,2.951,264,14.69,13.73,183.2668,0.17,49.68,57.16,33.22,35.02
"2018-06-04 12:10:00",343574,0.478,34.96,21.4,43.85,1084.354,0,867.3288,0,12.42,2.944,235,14.79,13.72,184.066,0.17,49.68,57.1,33.22,35.01
"2018-06-04 12:20:00",343575,0.558,28.45,21.36,45.13,1088.368,0,867.3351,0,3.807,3.025,250,14.9,13.72,185.1118,0.17,49.68,57.1,33.22,35.01
"2018-06-04 12:30:00",343576,0.6,340.3,21.25,43.23,1075.25,0,867.2367,0,4.661,3.017,431,14.97,13.72,184.1062,0.171,49.68,57.1,33.22,35.01
"2018-06-04 12:40:00",343577,0.347,296.4,21.82,43.8,1085.855,0,867.0828,0,11.8,2.947,297,15.1,13.72,186.2475,0.172,49.62,57.1,33.2,35.01
"2018-06-04 12:50:00",343578,0.637,332,21.4,42.77,1085.553,0,866.8935,0,7.727,2.987,279,15.23,13.73,186.5321,0.172,49.62,57.1,33.2,35.01
"2018-06-04 13:00:00",343579,0.466,228.3,22.12,43.34,1012.565,0,866.8088,0,13.88,2.926,270,15.31,13.71,172.9351,0.169,49.62,57.1,33.2,35.01
"2018-06-04 13:10:00",343580,0.435,25.89,21.52,44.18,1031.08,0,866.6164,0,5.685,3.004,217,15.42,13.69,175.2636,0.17,49.57,57.1,33.19,35.01
"2018-06-04 13:20:00",343581,0.678,299.3,21.92,43.93,1017.694,0,866.5643,0,3.41,3.029,204,15.54,13.7,174.5827,0.172,49.51,57.1,33.18,35.01
"2018-06-04 13:30:00",343582,0.751,330.9,21.65,43.32,1000.973,0,866.4449,0,4.455,3.018,246,15.63,13.7,173.521,0.173,49.57,57.04,33.19,34.99
"2018-06-04 13:40:00",343583,0.388,232.8,22.07,44.43,969.8351,0,866.32,0,-31.94,3.367,256,15.78,13.7,168.6419,0.174,49.51,57.04,33.18,34.99
"2018-06-04 13:50:00",343584,0.321,270,22.2,43.81,948.7551,0,866.3242,0,18.42,2.881,268,15.88,13.69,161.5549,0.17,49.51,57.04,33.18,34.99
"2018-06-04 14:00:00",343585,0.411,284.4,22.19,42.84,929.3268,0,866.317,0,4.785,3.013,223,15.96,13.73,157.1709,0.169,49.51,57.1,33.18,35.01
"2018-06-04 14:10:00",343586,0.472,250.9,22.38,42.9,899.7101,0,866.3213,0,5.403,3.004,235,16.05,13.74,149.0098,0.166,49.51,57.04,33.18,34.99
"2018-06-04 14:20:00",343587,0.598,308.5,22.3,41.59,876.9775,0,866.3094,0,5.575,3.005,290,16.15,13.71,142.6208,0.163,49.41,57.04,33.15,34.99
"2018-06-04 14:30:00",343588,0.451,315.5,22.36,40.85,857.6716,0,866.2461,0,14.59,2.917,322,16.24,13.7,134.6876,0.157,49.46,57.04,33.16,34.99
"2018-06-04 14:40:00",343589,0.306,248.6,22.51,39.57,831.3469,0,866.2167,0,6.34,2.995,312,16.31,13.72,121.0573,0.146,49.41,57.04,33.15,34.99
"2018-06-04 14:50:00",343590,0.554,209,22.54,40.58,808.7831,0,866.0674,0,-23.26,3.28,206,16.42,13.74,102.3715,0.127,49.35,57.04,33.14,34.99
"2018-06-04 15:00:00",343591,0.454,150.5,22.67,39.8,780.0629,0,866.0674,0,4.676,3.011,225,16.49,13.75,79.37011,0.102,49.41,57.04,33.15,34.99
"2018-06-04 15:10:00",343592,0.272,162.3,22.51,40.79,746.4923,0,866.0682,0,15.23,2.909,246,16.56,13.77,54.85294,0.073,49.35,57.04,33.14,34.99
"2018-06-04 15:20:00",343593,0.436,244.7,22.46,40.11,617.623,0,866.0593,0,5.1,3.01,301,16.64,13.79,40.07524,0.066,49.35,56.98,33.14,34.98
"2018-06-04 15:30:00",343594,0.29,173.6,21.9,43,241.0865,0,866.0754,0,6.538,2.997,262,16.73,13.79,32.13427,0.163,49.35,56.98,33.14,34.98
"2018-06-04 15:40:00",343595,0.35,198,21.93,42.31,243.8674,0,866.0754,0,-28.02,3.33,247,16.8,13.8,43.16237,0.177,49.3,56.98,33.12,34.98
"2018-06-04 15:50:00",343596,0.297,297.1,21.46,46.31,227.0006,0,866.1293,0,4.816,3.016,242,16.91,13.85,36.12177,0.159,49.3,56.98,33.12,34.98
"2018-06-04 16:00:00",343597,0.199,275.1,21.47,48.17,227.3628,0,866.3527,0,13.83,2.929,329,16.94,13.91,35.95892,0.158,49.24,56.98,33.11,34.98
"2018-06-04 16:10:00",343598,0.223,338.1,20.94,53.32,143.8719,0,866.3666,0,16.11,2.91,359,17.03,13.95,20.45594,0.142,49.19,56.98,33.09,34.98
"2018-06-04 16:20:00",343599,0.335,345.9,20.4,56.53,106.1884,0,866.5377,0,4.347,3.027,208,17.05,13.98,14.855,0.14,49.19,56.98,33.09,34.98
"2018-06-04 16:30:00",343600,0.258,282.7,20.05,56.15,150.184,0,866.6295,0,6.454,3.008,238,17.11,13.98,23.54821,0.156,49.19,56.93,33.09,34.97
"2018-06-04 16:40:00",343601,0.334,252.5,20.22,54.96,202.7397,0,866.6024,0,5.037,3.019,220,17.17,13.94,35.17073,0.173,49.13,56.93,33.08,34.97
"2018-06-04 16:50:00",343602,0.235,237.9,20.14,56.57,148.9577,0,866.5312,0,14.99,2.926,266,17.2,13.95,22.90399,0.153,49.19,56.93,33.09,34.97
"2018-06-04 17:00:00",343603,0.209,227.5,19.63,57.65,143.0977,0,866.467,0,15.54,2.922,273,17.28,14.05,21.14943,0.148,49.19,56.93,33.09,34.97
"2018-06-04 17:10:00",343604,0.327,185.5,19.66,59.17,154.8571,0,866.6223,0,15.45,2.922,263,17.27,14.05,25.40887,0.164,49.13,56.93,33.08,34.97
"2018-06-04 17:20:00",343605,0.242,201.1,19.8,59.75,137.7132,0,866.6429,0,4.189,3.031,236,17.24,14.03,22.05513,0.16,49.13,56.93,33.08,34.97
"2018-06-04 17:30:00",343606,0.257,158.8,19.46,60.37,113.259,0,866.7281,0,-21.54,3.281,200,17.28,14.05,17.45462,0.154,49.08,56.87,33.07,34.95
"2018-06-04 17:40:00",343607,0.116,171,19.16,61.25,67.55371,0,866.8981,0,3.989,3.037,216,17.29,14.16,8.42415,0.116,49.13,56.87,33.08,34.95
"2018-06-04 17:50:00",343608,0.155,219.5,18.51,63.36,41.06753,0,866.9279,0,4.96,3.031,242,17.31,14.18,3.694802,0.089,49.08,56.87,33.07,34.95
"2018-06-04 18:00:00",343609,0.016,189.2,17.98,65.72,48.04771,0,867.1506,0,14.25,2.943,344,17.29,14.15,5.377358,0.112,49.08,56.87,33.07,34.95
"2018-06-04 18:10:00",343610,0.057,164.5,17.65,67.19,34.77908,0,867.1768,0,4.944,3.035,222,17.29,14.16,3.596274,0.104,49.08,56.81,33.07,34.94
"2018-06-04 18:20:00",343611,0.056,177.8,17.28,68.72,30.16099,0,867.375,0,6.082,3.026,235,17.28,14.26,3.406797,0.113,49.03,56.81,33.05,34.94
"2018-06-04 18:30:00",343612,0.024,156.5,16.91,69.91,23.72319,0,867.4066,0,12.01,2.97,471,17.28,14.32,2.796681,0.118,48.97,56.81,33.04,34.94
"2018-06-04 18:40:00",343613,0.02,179.7,16.59,70.97,16.34212,0,867.5477,0,11.73,2.975,300,17.31,14.32,1.875823,0.113,48.97,56.81,33.04,34.94
"2018-06-04 18:50:00",343614,0,0,16.24,71.55,7.550074,0,867.6593,0,11.58,2.978,278,17.35,14.32,0.7882245,0.099,49.03,56.81,33.05,34.94
"2018-06-04 19:00:00",343615,0.075,185.9,15.9,72.48,1.080828,0,867.7014,0,11.08,2.984,259,17.34,14.35,0.04926403,0.016,48.97,56.81,33.04,34.94
"2018-06-04 19:10:00",343616,0.084,188.6,15.75,74.28,0.2122353,0,867.7372,0,15.01,2.946,323,17.22,14.36,0,0,48.97,56.75,33.04,34.93
"2018-06-04 19:20:00",343617,0.02,175.9,15.75,74.26,0,0,867.8426,0,11.23,2.983,322,17.25,14.41,0.1705294,0,49.03,56.81,33.05,34.94
"2018-06-04 19:30:00",343618,0.052,169.5,15.73,74.7,0,0,867.811,0,-26.36,3.349,211,17.27,14.41,0.1591607,0,49.03,56.75,33.05,34.93
"2018-06-04 19:40:00",343619,0.011,171.2,15.59,75.23,0,0,867.7078,0,-27.23,3.358,249,17.17,14.44,0,0,48.97,56.81,33.04,34.94
"2018-06-04 19:50:00",343620,0.065,125.6,15.26,77.08,0,0,867.6761,0,3.641,3.06,218,17.16,14.41,0,0,48.97,56.81,33.04,34.94
"2018-06-04 20:00:00",343621,0.076,122.6,15.05,77.88,0,0,867.6973,0,4.969,3.048,240,17.18,14.45,0,0,48.97,56.81,33.04,34.94
"2018-06-04 20:10:00",343622,0.047,242,14.86,78.28,0,0,867.8953,0,3.602,3.062,218,17.12,14.5,0,0,48.97,56.75,33.04,34.93
"2018-06-04 20:20:00",343623,0.018,127.5,14.45,81.7,0,0,867.9184,0,4.471,3.057,250,17.1,14.51,0,0,48.92,56.75,33.03,34.93
"2018-06-04 20:30:00",343624,0.003,79.6,13.96,85.6,0,0,868.0784,0,9.23,3.012,381,17.08,14.57,0,0,48.97,56.75,33.04,34.93
"2018-06-04 20:40:00",343625,0,0,14.04,85.9,0,0,868.3797,0,5.283,3.05,264,17.02,14.6,0.2160038,0,48.97,56.75,33.04,34.93
"2018-06-04 20:50:00",343626,0.022,151.8,13.92,86.9,0,0,868.4176,0,4.818,3.055,234,16.99,14.62,0.3259005,0,48.97,56.75,33.04,34.93
"2018-06-04 21:00:00",343627,0.005,150.9,14.13,86.3,0,0,868.4176,0,14.58,2.958,295,16.97,14.6,0.8185408,0,48.92,56.7,33.03,34.91
"2018-06-04 21:10:00",343628,0.018,147.5,14.18,86.1,0,0,868.4176,0,14.93,2.955,259,16.93,14.62,0.5040123,0,48.92,56.7,33.03,34.91
"2018-06-04 21:20:00",343629,0.092,141.9,14.07,87.2,0,0,868.6113,0,14.19,2.964,257,16.91,14.68,0.306962,0,48.92,56.7,33.03,34.91
"2018-06-04 21:30:00",343630,0.119,138.3,13.73,91.2,0,0,868.6472,0,-24.55,3.343,215,16.87,14.68,0.0606342,0,48.92,56.7,33.03,34.91
"2018-06-04 21:40:00",343631,0.059,329,13.89,90.7,0,0,868.6703,0,4.154,3.061,222,16.86,14.67,0.6783352,0,48.92,56.7,33.03,34.91
"2018-06-04 21:50:00",343632,0.219,93.3,13.99,90,0.05895452,0,868.6724,0,7.79,3.026,302,16.84,14.7,0.6783311,0.723,48.92,56.7,33.03,34.91
"2018-06-04 22:00:00",343633,0.022,343,14.04,90.2,0,0,868.7399,0,9.49,3.008,307,16.76,14.7,0.6139127,0,48.92,56.64,33.03,34.9
"2018-06-04 22:10:00",343634,0,0,14.02,90.5,0,0,868.6787,0,10.66,2.998,303,16.72,14.69,0.2728504,0,48.92,56.64,33.03,34.9
"2018-06-04 22:20:00",343635,0,0,13.86,92.3,0,0,868.6514,0,9.5,3.01,321,16.69,14.74,0,0,48.86,56.64,33.01,34.9
"2018-06-04 22:30:00",343636,0.004,114.8,13.56,94,0,0,868.4534,0,9.8,3.01,339,16.68,14.76,0,0,48.92,56.64,33.03,34.9
"2018-06-04 22:40:00",343637,0.013,115.7,13.02,99.6,0,0,868.4007,0,9.33,3.016,333,16.63,14.76,0,0,48.86,56.64,33.01,34.9
"2018-06-04 22:50:00",343638,0,0,13.06,100,0,0,868.2744,0,-25.32,3.354,203,16.56,14.77,0.053055,0,48.92,56.64,33.03,34.9
"2018-06-04 23:00:00",343639,0.129,178.6,12.72,100,0,0,868.169,0,-25.17,3.356,204,16.59,14.8,0,0,48.92,56.58,33.03,34.88
"2018-06-04 23:10:00",343640,0.136,142.4,12.26,100,0,0,868.0827,0,5.194,3.061,266,16.57,14.84,0,0,48.92,56.64,33.03,34.9
"2018-06-04 23:20:00",343641,0.181,168.9,12.06,100,0,0,867.9395,0,3.883,3.074,245,16.61,14.85,0.02653297,0,48.92,56.58,33.03,34.88
"2018-06-04 23:30:00",343642,0.021,168,12.28,100,0,0,868.2238,0,-24.95,3.354,206,16.52,14.89,0.4927744,0,48.86,56.58,33.01,34.88
"2018-06-04 23:40:00",343643,0.007,298.2,12.45,100,0,0,868.4176,0,-24.54,3.352,201,16.52,14.92,0.7050717,0,48.86,56.58,33.01,34.88
"2018-06-04 23:50:00",343644,0.123,129.4,11.95,100,0,0,868.308,0,-24.46,3.352,202,16.49,14.91,0.3222173,0,48.86,56.58,33.01,34.88
